TimeEDT,TemperatureF,Dew PointF,Humidity,Sea Level PressureIn,VisibilityMPH,Wind Direction,Wind SpeedMPH,Gust SpeedMPH,PrecipitationIn,Events,Conditions,WindDirDegrees,DateUTC
12:16 AM,53.6,50.0,88,30.07,1.8,Calm,Calm,-,N/A,,Drizzle,0,2012-10-10 04:16:00
12:37 AM,53.6,50.0,88,30.06,1.5,Calm,Calm,-,N/A,,Light Drizzle,0,2012-10-10 04:37:00
12:58 AM,53.6,50.0,88,30.05,2.0,East,3.5,-,N/A,,Overcast,100,2012-10-10 04:58:00
1:19 AM,53.6,50.0,88,30.05,2.5,Calm,Calm,-,N/A,Rain,Rain,0,2012-10-10 05:19:00
1:40 AM,53.6,50.0,88,30.05,2.5,Calm,Calm,-,N/A,,Overcast,0,2012-10-10 05:40:00
2:04 AM,53.6,50.0,88,30.04,2.5,Calm,Calm,-,N/A,,Light Drizzle,0,2012-10-10 06:04:00
2:25 AM,53.6,51.8,94,30.04,2.5,Calm,Calm,-,N/A,,Light Drizzle,0,2012-10-10 06:25:00
2:46 AM,53.6,51.8,94,30.04,1.8,Calm,Calm,-,N/A,,Drizzle,0,2012-10-10 06:46:00
3:07 AM,53.6,51.8,94,30.03,1.8,Calm,Calm,-,N/A,,Light Drizzle,0,2012-10-10 07:07:00
3:28 AM,53.6,51.8,94,30.02,2.5,Calm,Calm,-,N/A,,Overcast,0,2012-10-10 07:28:00
3:49 AM,53.6,51.8,94,30.01,2.0,Calm,Calm,-,N/A,,Overcast,0,2012-10-10 07:49:00
4:10 AM,53.6,51.8,94,30.01,1.5,Calm,Calm,-,N/A,,Overcast,0,2012-10-10 08:10:00
4:31 AM,53.6,51.8,94,30.00,2.5,Calm,Calm,-,N/A,,Overcast,0,2012-10-10 08:31:00
4:52 AM,53.6,51.8,94,30.00,3.0,Calm,Calm,-,N/A,,Overcast,0,2012-10-10 08:52:00
5:13 AM,53.6,50.0,88,30.00,1.8,WSW,3.5,-,N/A,,Overcast,240,2012-10-10 09:13:00
5:34 AM,53.6,50.0,88,30.00,0.2,WSW,3.5,-,N/A,Fog,Fog,240,2012-10-10 09:34:00
5:58 AM,53.6,50.0,88,30.00,0.2,West,3.5,-,N/A,Fog,Fog,260,2012-10-10 09:58:00
6:19 AM,51.8,50.0,94,30.01,0.2,WSW,3.5,-,N/A,Fog,Fog,240,2012-10-10 10:19:00
6:40 AM,51.8,50.0,94,30.00,0.2,West,6.9,-,N/A,Rain,Light Rain,260,2012-10-10 10:40:00
7:01 AM,51.8,48.2,88,30.00,0.8,SW,3.5,-,N/A,,Overcast,220,2012-10-10 11:01:00
7:22 AM,51.8,48.2,88,30.00,1.0,SW,3.5,-,N/A,,Overcast,220,2012-10-10 11:22:00
7:43 AM,51.8,48.2,88,30.00,1.8,SW,6.9,-,N/A,,Overcast,220,2012-10-10 11:43:00
8:04 AM,51.8,48.2,88,30.00,2.0,SSW,4.6,-,N/A,,Overcast,210,2012-10-10 12:04:00
8:25 AM,51.8,48.2,88,30.00,1.8,SW,3.5,-,N/A,,Overcast,230,2012-10-10 12:25:00
8:46 AM,51.8,48.2,88,30.00,1.8,SW,4.6,-,N/A,,Mostly Cloudy,230,2012-10-10 12:46:00
9:07 AM,51.8,50.0,94,30.00,2.5,WSW,6.9,-,N/A,,Mostly Cloudy,250,2012-10-10 13:07:00
9:28 AM,53.6,51.8,94,30.00,3.0,SW,4.6,-,N/A,,Mostly Cloudy,220,2012-10-10 13:28:00
9:49 AM,53.6,51.8,94,29.99,4.0,WSW,6.9,-,N/A,,Scattered Clouds,240,2012-10-10 13:49:00
10:13 AM,55.4,50.0,82,29.98,7.0,SW,11.5,-,N/A,,Scattered Clouds,220,2012-10-10 14:13:00
10:34 AM,55.4,50.0,82,29.99,10.0,West,10.4,-,N/A,,Scattered Clouds,270,2012-10-10 14:34:00
10:55 AM,57.2,48.2,72,29.98,10.0,West,10.4,17.3,N/A,,Scattered Clouds,260,2012-10-10 14:55:00
11:16 AM,57.2,46.4,67,29.98,10.0,West,10.4,16.1,N/A,,Scattered Clouds,280,2012-10-10 15:16:00
11:37 AM,57.2,42.8,59,29.98,10.0,WSW,13.8,18.4,N/A,,Scattered Clouds,250,2012-10-10 15:37:00
11:58 AM,59.0,42.8,55,29.98,10.0,West,13.8,20.7,N/A,,Scattered Clouds,280,2012-10-10 15:58:00
12:19 PM,60.8,39.2,45,29.97,10.0,West,10.4,20.7,N/A,,Scattered Clouds,270,2012-10-10 16:19:00
12:40 PM,60.8,44.6,55,29.96,10.0,WNW,12.7,20.7,N/A,,Scattered Clouds,300,2012-10-10 16:40:00
1:01 PM,60.8,44.6,55,29.95,10.0,West,11.5,16.1,N/A,,Clear,270,2012-10-10 17:01:00
1:19 PM,60.8,44.6,55,29.94,10.0,WSW,17.3,-,N/A,,Clear,250,2012-10-10 17:19:00
1:43 PM,60.8,44.6,55,29.93,10.0,West,12.7,20.7,N/A,,Scattered Clouds,270,2012-10-10 17:43:00
2:04 PM,62.6,46.4,55,29.92,10.0,West,13.8,19.6,N/A,,Clear,260,2012-10-10 18:04:00
2:28 PM,62.6,46.4,55,29.91,10.0,West,10.4,-,N/A,,Scattered Clouds,280,2012-10-10 18:28:00
2:49 PM,62.6,46.4,55,29.90,10.0,WSW,9.2,-,N/A,,Scattered Clouds,240,2012-10-10 18:49:00
3:10 PM,62.6,46.4,55,29.90,10.0,WSW,8.1,-,N/A,,Mostly Cloudy,250,2012-10-10 19:10:00
3:31 PM,64.4,46.4,52,29.89,10.0,WSW,8.1,-,N/A,,Mostly Cloudy,250,2012-10-10 19:31:00
3:52 PM,64.4,42.8,45,29.88,10.0,West,9.2,-,N/A,,Mostly Cloudy,260,2012-10-10 19:52:00
4:13 PM,64.4,42.8,45,29.87,10.0,WSW,6.9,-,N/A,,Mostly Cloudy,240,2012-10-10 20:13:00
4:34 PM,64.4,44.6,49,29.87,10.0,WSW,5.8,-,N/A,,Mostly Cloudy,240,2012-10-10 20:34:00
4:49 PM,64.4,44.6,49,29.87,10.0,WSW,9.2,-,N/A,,Overcast,240,2012-10-10 20:49:00
5:16 PM,62.6,44.6,52,29.88,10.0,WSW,9.2,-,N/A,,Mostly Cloudy,250,2012-10-10 21:16:00
5:37 PM,64.4,42.8,45,29.89,10.0,West,10.4,-,N/A,,Overcast,270,2012-10-10 21:37:00
5:58 PM,64.4,42.8,45,29.90,10.0,West,9.2,-,N/A,,Overcast,260,2012-10-10 21:58:00
6:22 PM,62.6,42.8,48,29.92,10.0,WNW,8.1,-,N/A,,Overcast,300,2012-10-10 22:22:00
7:04 PM,60.8,44.6,55,29.96,10.0,WNW,19.6,24.2,N/A,,Overcast,290,2012-10-10 23:04:00
7:25 PM,57.2,44.6,63,29.97,10.0,WNW,13.8,21.9,N/A,,Overcast,300,2012-10-10 23:25:00
7:46 PM,57.2,42.8,59,29.99,10.0,WNW,11.5,18.4,N/A,,Scattered Clouds,300,2012-10-10 23:46:00
9:31 PM,51.8,37.4,58,30.03,10.0,WNW,10.4,-,N/A,,Clear,290,2012-10-11 01:31:00
9:52 PM,51.8,39.2,62,30.04,10.0,WNW,10.4,-,N/A,,Clear,290,2012-10-11 01:52:00
10:13 PM,51.8,37.4,58,30.06,10.0,West,9.2,-,N/A,,Clear,280,2012-10-11 02:13:00
10:37 PM,51.8,37.4,58,30.07,10.0,West,9.2,-,N/A,,Clear,280,2012-10-11 02:37:00
10:58 PM,50.0,37.4,62,30.07,10.0,WNW,8.1,-,N/A,,Clear,290,2012-10-11 02:58:00
11:19 PM,51.8,37.4,58,30.08,10.0,WNW,9.2,-,N/A,,Scattered Clouds,290,2012-10-11 03:19:00
11:40 PM,51.8,37.4,58,30.08,10.0,West,6.9,-,N/A,,Mostly Cloudy,280,2012-10-11 03:40:00